Whidbey Island, WA
on Sunday, December 23, 2012

Sunday
Previous Day Next Day
Daily Summary
 ActualAverageRecord
Temperature
Mean Temperature °F °F  
Max Temperature 46°F 43°F 55°F (2005)
Min Temperature 39°F 33°F 19°F (1998)
Degree Days
Heating Degree Days 22    
Moisture
Dew Point 36°F   
Average Humidity 79    
Maximum Humidity 93    
Minimum Humidity 68    
Precipitation
Precipitation 0.28 in in in ()
Wind
Wind Speed 16 mph   
Max Wind Speed 29 mph   
Max Gust Speed 38 mph   
Visibility 9 miles   
Events Rain   
Averages and records for this station are not official NWS values.
Key: T is trace of precipitation, MM is missing value
Source: NWS Daily Summary
Seasonal Weather Averages
Time(PST)TemperatureDew PointHumidity Pressure Visibility Wind DirectionWind SpeedGust SpeedPrecipitationEvents Conditions
12:56 AM 44.1°F 36.0°F 73% 29.71 in 10.0 miles SE 28.8 mph 38.0 mph N/A   Mostly Cloudy
1:56 AM 44.1°F 36.0°F 73% 29.73 in 10.0 miles SSE 26.5 mph 35.7 mph N/A   Mostly Cloudy
2:56 AM 43.0°F 36.0°F 76% 29.73 in 10.0 miles SE 24.2 mph 33.4 mph N/A   Mostly Cloudy
3:28 AM 42.8°F 35.6°F 76% 29.72 in 10.0 miles ESE 20.7 mph 26.5 mph N/A   Mostly Cloudy
3:56 AM 43.0°F 36.0°F 76% 29.73 in 10.0 miles SE 19.6 mph 27.6 mph N/A   Mostly Cloudy
4:31 AM 42.8°F 35.6°F 76% 29.72 in 10.0 miles SE 21.9 mph 32.2 mph 0.00 in Rain Light Rain
4:56 AM 41.0°F 36.0°F 82% 29.73 in 10.0 miles SE 18.4 mph - 0.00 in   Mostly Cloudy
5:12 AM 42.8°F 35.6°F 76% 29.71 in 10.0 miles SE 18.4 mph 25.3 mph N/A   Mostly Cloudy
5:56 AM 43.0°F 35.1°F 74% 29.73 in 10.0 miles SE 20.7 mph - N/A   Mostly Cloudy
6:56 AM 44.1°F 35.1°F 71% 29.73 in 10.0 miles SE 20.7 mph 27.6 mph N/A   Mostly Cloudy
7:56 AM 43.0°F 34.0°F 71% 29.72 in 10.0 miles SE 19.6 mph 27.6 mph N/A   Mostly Cloudy
8:31 AM 42.8°F 35.6°F 76% 29.71 in 10.0 miles ESE 13.8 mph 24.2 mph 0.00 in Rain Light Rain
8:56 AM 41.0°F 36.0°F 82% 29.73 in 10.0 miles ESE 16.1 mph 23.0 mph 0.01 in Rain Light Rain
9:56 AM 43.0°F 36.0°F 76% 29.72 in 10.0 miles SE 16.1 mph 24.2 mph 0.00 in   Overcast
10:56 AM 43.0°F 36.0°F 76% 29.71 in 10.0 miles ESE 9.2 mph - N/A   Overcast
11:06 AM 42.8°F 35.6°F 76% 29.69 in 10.0 miles ESE 6.9 mph - 0.00 in Rain Light Rain
11:23 AM 44.6°F 35.6°F 71% 29.68 in 10.0 miles East 6.9 mph - 0.00 in   Overcast
11:56 AM 45.0°F 38.8°F 79% 29.68 in 10.0 miles East 8.1 mph - 0.00 in   Overcast
12:56 PM 46.0°F 36.0°F 68% 29.66 in 10.0 miles ESE 9.2 mph - N/A   Overcast
1:56 PM 45.0°F 36.0°F 71% 29.65 in 10.0 miles East 5.8 mph - N/A   Overcast
2:56 PM 44.1°F 36.0°F 73% 29.65 in 10.0 miles East 3.5 mph - N/A   Overcast
3:56 PM 43.0°F 36.0°F 76% 29.66 in 10.0 miles Calm Calm - 0.00 in Rain Light Rain
4:56 PM 41.0°F 37.0°F 86% 29.68 in 5.0 miles Calm Calm - 0.05 in Rain Rain
5:56 PM 39.9°F 37.0°F 89% 29.69 in 5.0 miles Calm Calm - 0.05 in Rain Light Rain
6:56 PM 39.9°F 36.0°F 86% 29.71 in 8.0 miles Calm Calm - 0.05 in Rain Light Rain
7:56 PM 39.0°F 37.0°F 93% 29.73 in 6.0 miles Calm Calm - 0.05 in Rain Light Rain
8:56 PM 39.0°F 36.0°F 89% 29.75 in 9.0 miles Calm Calm - 0.04 in Rain Light Rain
9:19 PM 39.2°F 37.4°F 93% 29.74 in 8.0 miles Calm Calm - 0.01 in Rain Light Rain
9:56 PM 39.0°F 36.0°F 89% 29.77 in 10.0 miles Calm Calm - 0.02 in Rain Light Rain
10:56 PM 39.0°F 36.0°F 89% 29.80 in 10.0 miles Calm Calm - N/A   Overcast
11:39 PM 39.2°F 35.6°F 87% 29.81 in 10.0 miles Calm Calm - 0.01 in Rain Light Rain
11:56 PM 39.0°F 36.0°F 89% 29.83 in 10.0 miles Calm Calm - 0.01 in   Overcast
Moon Phase
Dec. 23 Dec. 28 Jan. 04 Jan. 11 Jan. 18
Sunrise:08:00 AM (PST) Moon Rise:01:22 PM (PST)
Sunset:04:19 PM (PST) Moon Set:03:37 AM (PST)

Copyright © 2014 The Weather Underground, Inc.